Location: Novokuznetsk
(53.7500°N, 87.1000°E)
Time: 00:03:50
(UTC+06:00)

ISS - Visible Passes

Search period start: 22 March 2019 00:00
Search period end: 01 April 2019 00:00
Orbit: 406 x 411 km, 51.6° (Epoch: 21 March)

Date Brightness Start Highest point End Pass type
(mag) Time Alt. Az. Time Alt. Az. Time Alt. Az.
22 Mar -1.6 20:01:24 10° S 20:02:20 14° S 20:02:20 14° S visible
23 Mar -1.6 19:11:49 10° SSE 19:12:40 11° SE 19:13:32 10° SE visible
23 Mar -1.8 20:45:30 10° SW 20:46:47 20° SSW 20:46:47 20° SSW visible
24 Mar -2.7 19:54:46 10° SSW 19:57:34 26° SSE 19:58:14 24° SE visible
24 Mar -1.0 21:30:32 10° WSW 21:30:59 13° WSW 21:30:59 13° WSW visible
25 Mar -2.1 19:04:14 10° SSW 19:06:39 19° SSE 19:09:04 10° E visible
25 Mar -3.3 20:39:32 10° WSW 20:42:17 44° SSW 20:42:17 44° SSW visible
26 Mar -3.2 19:48:35 10° SW 19:51:42 39° SSE 19:53:27 21° ESE visible
26 Mar -1.7 21:24:45 10° W 21:26:11 23° WSW 21:26:11 23° WSW visible
27 Mar -3.8 20:33:40 10° WSW 20:36:56 59° S 20:37:14 55° SSE visible
28 Mar -3.5 19:42:37 10° WSW 19:45:50 53° S 19:48:12 17° E visible
28 Mar -2.3 21:18:59 10° W 21:20:56 31° WSW 21:20:56 31° WSW visible
29 Mar -3.7 20:27:51 10° W 20:31:06 59° S 20:31:51 44° SE visible
29 Mar -0.7 22:04:24 10° W 22:04:34 11° W 22:04:34 11° W visible
30 Mar -3.6 19:36:43 10° WSW 19:39:59 60° S 19:42:43 14° E visible
30 Mar -2.5 21:13:11 10° W 21:15:27 33° WSW 21:15:27 33° WSW visible
31 Mar -3.4 20:22:00 10° W 20:25:12 50° SSW 20:26:17 33° SE visible
31 Mar -0.8 21:58:49 10° W 21:59:01 11° WSW 21:59:01 11° WSW visible
